Regional Weather Roundup
Issued by NWS

Home | Current Version | Previous Version | Graphics & Text | Print | Product List | Glossary Off
Versions: 1 2 3 4 5 6 7 8 9 10 11 12 13 14 15 16 17 18 19 20 21 22 23 24 25 26 27 28 29 30 31 32 33 34 35 36 37 38 39 40 41 42 43 44 45 46 47 48 49 50

000
ASUS43 KMKX 260211
RWRWI

WISCONSIN REGIONAL WEATHER ROUNDUP
NATIONAL WEATHER SERVICE MILWAUKEE/SULLIVAN WI
800 PM CST TUE NOV 25 2014

NOTE: "FAIR" INDICATES FEW OR NO CLOUDS BELOW 12,000 FEET WITH NO
SIGNIFICANT WEATHER AND/OR OBSTRUCTIONS TO VISIBILITY.

WIZ001-002-006>008-014>016-023>028-260300-
NORTHWEST WISCONSIN

CITY           SKY/WX    TMP DP  RH WIND       PRES   REMARKS
SUPERIOR ARPT  CLOUDY    18  12  76 SW3       30.06R
ASHLAND        CLOUDY    12   9  87 CALM      30.08R
HAYWARD        CLOUDY    15  11  83 CALM      30.03R
SIREN          CLOUDY    20  14  78 CALM      30.04R
CUMBERLAND     CLOUDY    21  14  73 SE6       30.02R WCI  14
RICE LAKE      CLOUDY    21  15  78 SE6       30.04S WCI  14
CHETEK         CLOUDY    20  15  78 SE6       30.04S WCI  13
LADYSMITH      CLOUDY    20  15  81 S3        30.05S
EAU CLAIRE     CLOUDY    22  14  71 SE8       30.05F WCI  12
MENOMONIE      CLOUDY    23  16  73 SE3       30.05S
NEW RICHMOND   CLOUDY    23  17  76 SE5       30.03S WCI  17
OSCEOLA        CLOUDY    23  17  77 SE5       30.06S WCI  17
$$

WIZ003>005-009-010-017-018-260300-
NORTH CENTRAL WISCONSIN

CITY           SKY/WX    TMP DP  RH WIND       PRES   REMARKS
MANITOWISH WTR PTCLDY     4   1  88 CALM      30.01R
ARBOR VITAE    PTCLDY     8   5  87 CALM      30.01S
WOODRUFF       PTCLDY     8   5  87 CALM      30.01S
RHINELANDER    CLEAR      7   3  84 CALM      30.02S FOG
EAGLE RIVER    CLEAR      2  -3  81 CALM      30.01S
LAND O LAKES   CLEAR      0  -4  85 CALM      30.02R
PHILLIPS       MOCLDY     8   6  92 CALM      30.02R
TOMAHAWK       FAIR       6   3  89 CALM      30.04R
MEDFORD        CLOUDY    17  13  84 S3        30.03R
MERRILL        CLEAR      8   6  91 CALM      30.04F
$$

WIZ029-030-035-036-043>047-260300-
CENTRAL WISCONSIN

CITY           SKY/WX    TMP DP  RH WIND       PRES   REMARKS
WAUSAU         CLEAR     13  10  88 E3        30.04F
MOSINEE        CLEAR     10  10 100 CALM      30.06S
MARSHFIELD     CLOUDY    20  14  77 CALM      30.04F
STEVENS POINT  CLEAR      8   6  91 CALM      30.08S
WAUPACA        CLEAR     14  11  87 CALM      30.11S
WAUTOMA        CLEAR      7   4  87 CALM      30.11S FOG
WISC RAPIDS    CLOUDY    17  13  84 S3        30.09S
CAMP DOUGLAS   PTCLDY    10  10 100 SE2       30.08F
$$

WIZ011>013-019>022-031-037>040-048>050-260300-
NORTHEAST WISCONSIN

CITY           SKY/WX    TMP DP  RH WIND       PRES   REMARKS
ANTIGO         FOG        0  -3  85 CALM      30.04S VSB 1/2
SHAWANO        CLEAR     18  15  89 CALM      30.10S
OCONTO         CLOUDY    20  17  86 W6        30.11S WCI  12
STURGEON BAY   CLOUDY    23  16  74 SW6       30.11R WCI  16
GREEN BAY      CLOUDY    21  15  78 SW3       30.12S
MANITOWOC      CLOUDY    22  18  85 W5        30.14R WCI  16
APPLETON       PTCLDY    18  16  93 VRB3      30.11S
CLINTONVILLE   CLEAR      9   5  85 CALM      30.10S FOG
OSHKOSH        CLOUDY    19  14  81 CALM      30.12S
$$

WIZ032>034-041-042-053>061-260300-
SOUTHWEST WISCONSIN

CITY           SKY/WX    TMP DP  RH WIND       PRES   REMARKS
LA CROSSE      MOCLDY    22  14  71 S8        30.10S WCI  12
SPARTA         CLOUDY    18  15  89 CALM      30.11R
VIROQUA        PTCLDY    16  13  87 CALM      30.07R
BOSCOBEL       CLEAR     12   8  84 CALM      30.12S
PRAIRIE DU CHI CLEAR     15  11  86 CALM      30.12S
PLATTEVILLE    CLEAR     17  15  91 CALM      30.11S
$$

WIZ056-057-062-063-064-067-068-260300-
SOUTH CENTRAL WISCONSIN

CITY           SKY/WX    TMP DP  RH WIND       PRES   REMARKS
REEDSBURG      CLEAR     12  11  92 CALM      30.10S
BARABOO/DELLS  CLEAR     15  13  93 S3        30.09S FOG
LONE ROCK      CLEAR      8   1  73 E3        30.12F
MINERAL POINT  CLEAR     18  14  86 S5        30.09S WCI  11
MADISON        CLEAR     15  13  91 CALM      30.12R
MIDDLETON      CLEAR      9   5  85 CALM      30.12S
WATERTOWN      CLOUDY    19  17  90 CALM      30.13R
MONROE         CLEAR     16  14  93 S6        30.11R WCI   7
JANESVILLE     CLEAR     12  10  92 CALM      30.15R
$$

WIZ051-052-058>065-066-070>072-260300-
SOUTHEAST WISCONSIN

CITY           SKY/WX    TMP DP  RH WIND       PRES   REMARKS
MILWAUKEE      CLOUDY    21  15  78 SW5       30.16R WCI  15
WAUKESHA       CLOUDY    18  16  93 SW5       30.15R WCI  11
MILWAUKEE/TIMM CLOUDY    21  16  79 SW6       30.15R WCI  14
RACINE         CLOUDY    21  15  78 W3        30.18R
BURLINGTON     CLOUDY    18  14  87 CALM      30.15R
KENOSHA        CLOUDY    21  16  81 W6        30.16R WCI  13
FOND DU LAC    CLOUDY    20  14  77 S3        30.12S
SHEBOYGAN      CLOUDY    20  15  81 W6        30.13S WCI  12
WEST BEND      CLOUDY    21  16  79 SW5       30.13R WCI  15
JUNEAU         MOCLDY    17  15  93 S3        30.13R
$$

LSZ147-162-260300-
LAKE SUPERIOR

STATION/POSITION TIME  TEMP    WIND        PRES    WAVE
                       AIR SEA DIR/SP/G            HT/PER
                 (UTC) (F)     (DEG/KT/KT) (MB)    (FT/S)
DEVILS ISLAND    0200   23     220/ 15/ 19 1018.5R
PORT WING        0140   17     150/  3/  4 1018.3R
SAXON HARBOR     0100   14        CALM     1017.6R
$$

LMZ867-665-643>646-260300-
LAKE MICHIGAN

STATION/POSITION TIME  TEMP    WIND        PRES    WAVE
                       AIR SEA DIR/SP/G            HT/PER
                 (UTC) (F)     (DEG/KT/KT) (MB)    (FT/S)
CHAMBERS ISLAND  0100   26     220/  3/  7 1019.3R
N MID LAKE BUOY  0150   28 42  270/  8/ 12 1020.0R   1/ 3
NORTHPORT PIER   0102   26     160/  2/  4 1019.3R
SISTER BAY       0113             CALM       N/A
ALGOMA LAKESHORE 0028          240/  6/  9   N/A
KEWAUNEE LAKESHO 0100   22     240/  6/  9 1019.1R
SHEBOYGAN LAKESH 0200   21 36  240/  6/  7 1022.1R
PORT WASHINGTON  0140   23     250/  3/  8 1021.7R
MILWAUKEE LAKESH 0100   22     230/  7/  9   N/A
S MID LAKE BUOY  0150   28 42  240/  8/ 14 1022.1R   3/ 6
KENOSHA   LAKESH 0200   22     210/  5/  6 1021.7R
$$

TC  - TEMPERATURE IN CELSIUS
VSB - VISIBILITY IN STATUTE MILES
WCI - WIND CHILL INDEX
HX  - HEAT INDEX




USA.gov is the U.S. government's official web portal to all federal, state and local government web resources and services.